{"data":{"norad_id":66544,"epoch":"2026-05-25T04:14:55.722048Z","epoch_age_seconds":55643,"freshness":"FRESH","line1":"1 66544U 25265AE  26145.17703382  .00023141  00000+0  84750-3 0  9991","line2":"2 66544  42.9983 205.7559 0000806 282.1390  77.9371 15.27591360 28816","mean_motion":15.2759136,"eccentricity":8.06e-5,"inclination_deg":42.9983,"raan_deg":205.7559,"arg_perigee_deg":282.139,"mean_anomaly_deg":77.9371,"bstar":0.0008475,"rev_number":2881,"period_min":94.266047694849,"perigee_km":482.46207146604,"apogee_km":483.56808918139,"semimajor_km":6861.1520803237,"source":"CELESTRAK","updated_at":"2026-05-25T13:38:21.255648Z"}}